Location: Bacharowice
(49.9333°N, 19.5833°E)
Time: 02:24:52
(UTC+00:00)

Spot 4 - Pass Details

Date: 11 May 2021
Orbit: 703 x 724 km, 98.3° (Epoch: 22 June)

Event Time Altitude Azimuth Distance (km) Brightness Sun altitude
Exits shadow 21:55:19 47° 199° (SSW) 960 4.1 -21.3°
Maximum altitude 21:56:33 64° 258° (WSW) 801 4.0 -21.3°
Drops below altitude 10° 22:01:25 10° 340° (NNW) 2,223 7.5 -21.5°
Sets 22:03:43 0° 344° (NNW) 3,147 8.7 -21.5°
